Flag for Australia Weather past 2 weeks in Canberra, Australian Capital Territory, Australia

Now
37 °F

Passing clouds.


Feels Like: 32 °F
Forecast: 36 / 54 °F
Wind: 7 mph from North

Location: Canberra Airport

Current Time: Sep 18, 2014 at 6:45:38 AM

Latest Report: Sep 18, 2014 at 6:00 AM


Visibility: N/A

Pressure: 30.04 "Hg

Humidity: 75%

Dew point: 30 °F

Location of CanberraLocation

Historic Weather in Canberra — Graph

°F

Canberra temperature yesterday

Maximum temperature yesterday: 59 °F (at 12:30 PM)
Minimum temperature yesterday: 45 °F (at 11:30 PM)
Average temperature yesterday: 51 °F

Past Weeks' High & Low Weather Summary

 TemperatureHumidityPressure
High66 °F (Sep 15, 3:00 PM)100% (Sep 7, 12:00 AM)30.48 "Hg (Sep 7, 12:00 AM)
Low28 °F (Sep 7, 5:30 AM)39% (Sep 17, 12:30 PM)29.68 "Hg (Sep 10, 4:00 AM)
Average49 °F73%30.09 "Hg
* Reported Sep 3 5:00 AM — Sep 18 5:30 AM, Canberra, Weather by CustomWeather, © 2014

Note: Actual official high and low records may vary slightly from our data, if they occured in-between our weather recording intervals... More about our weather records

Advertising

Canberra weather history for previous 24 hours

 ConditionsComfort  
Time TempWeatherWind HumidityBarometerVisibility
5:30 AM
Sep 18
37 °FPassing clouds.6 mph70%30.01 "HgN/A
5:00 AM36 °FPassing clouds.5 mph70%30.01 "HgN/A
4:30 AM41 °FPassing clouds.9 mph61%29.98 "HgN/A
4:00 AM43 °FPassing clouds.12 mph57%29.98 "HgN/A
3:30 AM43 °FClear.9 mph57%29.98 "HgN/A
3:00 AM43 °FClear.15 mph61%29.95 "HgN/A
2:30 AM43 °FClear.6 mph57%29.98 "HgN/A
2:00 AM41 °FClear.5 mph61%29.98 "HgN/A
1:30 AM45 °FPassing clouds.6 mph57%29.98 "HgN/A
1:00 AM46 °FPassing clouds.5 mph53%29.98 "HgN/A
12:30 AM46 °FClear.10 mph53%29.98 "HgN/A
12:00 AM43 °FPassing clouds.10 mph66%29.98 "HgN/A
11:30 PM
Sep 17
45 °FPassing clouds.8 mph61%29.98 "HgN/A
11:00 PM46 °FPassing clouds.7 mph57%29.98 "HgN/A
10:30 PM48 °FPassing clouds.7 mph58%29.98 "HgN/A
10:00 PM48 °FOvercast.8 mph58%29.98 "HgN/A
9:30 PM48 °FPassing clouds.8 mph58%29.95 "HgN/A
9:00 PM48 °FClear.9 mph58%29.95 "HgN/A
8:30 PM48 °FPassing clouds.10 mph58%29.95 "HgN/A
8:00 PM48 °FPassing clouds.12 mph54%29.95 "HgN/A
7:30 PM48 °FPassing clouds.8 mph58%29.95 "HgN/A
7:00 PM50 °FPassing clouds.16 mph54%29.92 "HgN/A
6:30 PM50 °FPassing clouds.20 mph54%29.92 "HgN/A
6:00 PM50 °FPassing clouds.20 mph58%29.89 "HgN/A
5:30 PM52 °FScattered showers. Passing clouds.20 mph58%29.89 "HgN/A
5:00 PM54 °FScattered showers. Passing clouds.21 mph54%29.89 "HgN/A
4:30 PM54 °FScattered showers. Scattered clouds.20 mph54%29.89 "HgN/A
4:00 PM55 °FScattered showers. Passing clouds.18 mph51%29.89 "HgN/A
3:30 PM54 °FSprinkles. Scattered clouds.20 mph54%29.86 "HgN/A
3:00 PM54 °FScattered showers. Scattered clouds.21 mph47%29.86 "HgN/A
2:30 PM57 °FScattered showers. Scattered clouds.15 mph44%29.86 "HgN/A
2:00 PM55 °FSprinkles. Broken clouds.20 mph44%29.86 "HgN/A
1:30 PM55 °FScattered showers. Broken clouds.21 mph44%29.86 "HgN/A
1:00 PM55 °FBroken clouds.21 mph44%29.86 "HgN/A
12:30 PM59 °FSunny.20 mph39%29.86 "Hg10 mi
12:00 PM57 °FScattered clouds.16 mph41%29.86 "HgN/A
11:30 AM57 °FScattered clouds.17 mph41%29.89 "HgN/A
11:00 AM55 °FPartly sunny.16 mph41%29.89 "HgN/A
10:30 AM55 °FPartly sunny.15 mph44%29.89 "HgN/A
10:00 AM54 °FPartly sunny.16 mph47%29.89 "HgN/A
9:30 AM55 °FScattered clouds.16 mph41%29.89 "HgN/A
9:00 AM55 °FScattered clouds.15 mph44%29.89 "HgN/A
8:00 AM52 °FScattered clouds.16 mph58%29.89 "HgN/A
7:30 AM50 °FPassing clouds.15 mph62%29.89 "HgN/A
7:00 AM48 °FPassing clouds.13 mph62%29.89 "HgN/A
6:30 AM46 °FPassing clouds.12 mph71%29.89 "HgN/A
6:00 AM46 °FPassing clouds.10 mph87%29.86 "HgN/A
Weather by CustomWeather, © 2014

See weather overviewHow to use our weather pages